Dalhart, TX

8:50 PM CST on February 24, 2017 (GMT -0600)
Dalhart Municipal

Weather History for KDHT - March, 2014

Change the Weather History Date:

Monday, March 31, 2014

  Actual Average Record
Temperature  
Mean Temperature 60 °F 49 °F  
Max Temperature 75 °F 66 °F 87 °F (2010)
Min Temperature 45 °F 33 °F 20 °F (2009)
Degree Days  
Heating Degree Days 5 16  
Month to date heating degree days 589 612  
Since 1 July heating degree days 4183 4254  
Cooling Degree Days 0 0  
Month to date cooling degree days 0 0  
Year to date cooling degree days 0 0  
Growing Degree Days 10 (Base 50)    
Moisture  
Dew Point 6 °F    
Average Humidity 17    
Maximum Humidity 31    
Minimum Humidity 3    
Precipitation  
Precipitation 0.00 in 0.04 in 0.49 in (1992)
Month to date precipitation 0.09 1.17  
Year to date precipitation 0.18 2.09  
Snow  
Snow 0.00 in 0.10 in 2.00 in (1984)
Month to date snowfall 1.1 4.2  
Since 1 July snowfall 16.4 17.7  
Snow Depth 0.00 in    
Sea Level Pressure  
Sea Level Pressure 29.71 in    
Wind  
Wind Speed 18 mph (West)    
Max Wind Speed 33 mph    
Max Gust Speed 45 mph    
Visibility 10 miles    
Events      
T = Trace of Precipitation, MM = Missing Value Source: NWS Daily Summary

Daily Weather History Graph

Daily Weather History Graph

Search for Another Location

Airport or City:

Trip Planner

Search our weather history database for the weather conditions in past years. The results will help you decide how hot, cold, wet, or windy it might be!

Date:

Astronomy

Mar. 31, 2014 Rise Set
Actual Time 7:37 AM CDT 8:11 PM CDT
Civil Twilight 7:12 AM CDT 8:37 PM CDT
Nautical Twilight 6:41 AM CDT 9:07 PM CDT
Astronomical Twilight 6:10 AM CDT 9:38 PM CDT
Moon 8:04 AM CDT (3/31) 9:29 PM CDT (3/31)
Length of Visible Light 13h 25m
Length of Day
12h 33m
New Moon, 1% of the Moon is Illuminated
Mar 31
New Moon
Apr 7
First Quarter
Apr 15
Full
Apr 22
Last Quarter
Apr 29
New

Hourly Weather History & Observations

Time (CDT) Temp. Dew Point Humidity Pressure Visibility Wind Dir Wind Speed Gust Speed Precip Events Conditions
12:53 AM 62.1 °F 14.0 °F 15% 29.56 in 10.0 mi WSW 12.7 mph - N/A   Clear
1:53 AM 57.0 °F 14.0 °F 18% 29.57 in 10.0 mi West 17.3 mph 23.0 mph N/A   Clear
2:53 AM 57.0 °F 10.9 °F 16% 29.58 in 10.0 mi WSW 20.7 mph 28.8 mph N/A   Clear
3:53 AM 57.0 °F 7.0 °F 14% 29.57 in 10.0 mi WSW 18.4 mph - N/A   Clear
4:53 AM 53.1 °F 8.1 °F 16% 29.60 in 10.0 mi WSW 16.1 mph - N/A   Clear
5:53 AM 52.0 °F 12.9 °F 21% 29.62 in 10.0 mi West 16.1 mph - N/A   Clear
6:53 AM 50.0 °F 14.0 °F 24% 29.65 in 10.0 mi SW 15.0 mph - N/A   Clear
7:53 AM 46.9 °F 14.0 °F 27% 29.68 in 10.0 mi SW 13.8 mph - N/A   Clear
8:53 AM 51.1 °F 14.0 °F 23% 29.73 in 10.0 mi North 11.5 mph - N/A   Clear
9:18 AM 54.0 °F 12.0 °F 19% 29.84 in 10.0 mi West 16.1 mph 25.3 mph N/A   Clear
9:53 AM 59.0 °F 10.0 °F 14% 29.73 in 10.0 mi West 19.6 mph 27.6 mph N/A   Clear
10:53 AM 63.0 °F 3.0 °F 9% 29.74 in 10.0 mi West 26.5 mph 32.2 mph N/A   Clear
11:53 AM 66.9 °F -0.0 °F 7% 29.75 in 10.0 mi WNW 16.1 mph 25.3 mph N/A   Clear
12:53 PM 70.0 °F -7.1 °F 5% 29.74 in 10.0 mi West 23.0 mph 29.9 mph N/A   Clear
1:53 PM 73.0 °F -11.9 °F 4% 29.73 in 10.0 mi West 19.6 mph 27.6 mph N/A   Clear
2:53 PM 73.9 °F -9.9 °F 4% 29.71 in 7.0 mi West 21.9 mph 44.9 mph N/A   Partly Cloudy
3:53 PM 73.0 °F -6.0 °F 4% 29.70 in 10.0 mi West 23.0 mph 39.1 mph N/A   Clear
4:53 PM 75.0 °F -5.1 °F 4% 29.70 in 10.0 mi WNW 24.2 mph 35.7 mph N/A   Clear
5:53 PM 73.9 °F -5.1 °F 4% 29.71 in 10.0 mi West 18.4 mph 28.8 mph N/A   Clear
6:53 PM 73.0 °F -2.0 °F 5% 29.73 in 10.0 mi West 18.4 mph - N/A   Clear
7:53 PM 64.0 °F 9.0 °F 12% 29.78 in 10.0 mi West 5.8 mph - N/A   Clear
8:53 PM 62.1 °F 3.9 °F 10% 29.80 in 10.0 mi East 17.3 mph 21.9 mph N/A   Clear
9:53 PM 54.0 °F 9.0 °F 17% 29.85 in 10.0 mi East 9.2 mph - N/A   Clear
10:53 PM 51.1 °F 10.9 °F 20% 29.89 in 9.0 mi NE 23.0 mph 28.8 mph N/A   Clear
11:53 PM 48.9 °F 19.9 °F 32% 29.90 in 7.0 mi ENE 23.0 mph 31.1 mph N/A   Clear